User: anonymous   Login
Location: Unspecified
(0.0000°N, 0.0000°E)
Time: 06:49:08
(UTC+00:00)
Language:

Oscar 16 - Orbit

View from above orbital plane
View from above orbital plane
View from above satellite
View from above satellite

Ground track
Ground track

The orbit data is extracted from the following two-line orbital elements,

1 20439U 90005D   17087.78783279 +.00000045 +00000-0 +32747-4 0  9992
2 20439 098.6033 027.6647 0011688 044.1350 008.1307 14.32672751419643
Epoch (UTC): 28 March 2017 18:54:28
Eccentricity: 0.0011688
inclination: 98.6033°
perigee height: 774 km
apogee height: 791 km
right ascension of ascending node: 27.6647°
argument of perigee: 44.1350°
revolutions per day: 14.32672751
mean anomaly at epoch: 8.1307°
orbit number at epoch: 41964

The dashed part of the orbit path shows where the satellite is in the earth's shadow,  

DLR